Location: Unspecified
(43.8044°N, 11.0278°E)
Time: 08:41:21
(UTC+02:00)

Cosmos 1674 - Visible Passes

Search period start: 28 July 2017 00:00
Search period end: 07 August 2017 00:00
Orbit: 498 x 522 km, 82.5° (Epoch: 26 July)

Date Brightness Start Highest point End Pass type
(mag) Time Alt. Az. Time Alt. Az. Time Alt. Az.
28 Jul 2.6 05:01:08 10° NNW 05:04:59 74° W 05:08:50 10° S visible
29 Jul 2.7 04:44:29 10° N 04:48:22 86° E 04:52:14 10° S visible
30 Jul 3.0 04:27:52 10° N 04:31:44 67° E 04:35:34 10° SSE visible
31 Jul 3.5 04:11:17 10° N 04:15:05 51° ENE 04:18:51 10° SSE visible
01 Aug 4.0 03:54:45 10° N 03:58:26 40° ENE 04:02:04 10° SSE visible
01 Aug 4.6 05:31:31 10° NW 05:33:39 14° W 05:35:47 10° WSW visible
02 Aug 4.4 03:38:15 10° N 03:41:45 32° ENE 03:44:51 12° SE visible
02 Aug 4.3 05:14:27 10° NW 05:17:06 18° W 05:19:42 10° SW visible
03 Aug 4.7 03:21:47 10° NNE 03:25:04 25° ENE 03:27:37 14° SE visible
03 Aug 4.0 04:57:30 10° NW 05:00:32 22° W 05:02:29 16° SW visible
04 Aug 5.0 03:05:23 10° NNE 03:08:22 21° ENE 03:10:28 14° ESE visible
04 Aug 3.7 04:40:38 10° NNW 04:43:59 28° W 04:45:20 22° SW visible
05 Aug 5.2 02:49:05 10° NNE 02:51:40 17° ENE 02:53:22 13° E visible
05 Aug 3.4 04:23:50 10° NNW 04:27:23 35° W 04:28:14 31° WSW visible
06 Aug 5.4 02:32:54 10° NE 02:34:55 14° ENE 02:36:19 12° E visible
06 Aug 3.0 04:07:05 10° NNW 04:10:48 45° W 04:11:11 43° WSW visible
